Kecskemet, Hungary

4:14 PM CEST on June 24, 2017 (GMT +0200)
Kecskemet

Weather History for LHKE - April, 2013

Change the Weather History Date:

Monday, April 22, 2013

  Actual Average (LHBP) Record (LHBP)
Temperature  
Mean Temperature 58 °F -  
Max Temperature 73 °F 62 °F 75 °F (2011)
Min Temperature 44 °F 41 °F 26 °F (2005)
Degree Days  
Heating Degree Days 6    
Growing Degree Days 8 (Base 50)    
Moisture  
Dew Point 43 °F    
Average Humidity 57    
Maximum Humidity 82    
Minimum Humidity 33    
Precipitation  
Precipitation 0.00 in - - ()
Sea Level Pressure  
Sea Level Pressure 29.97 in    
Wind  
Wind Speed 7 mph ()    
Max Wind Speed 11 mph    
Max Gust Speed -    
Visibility 2.1 miles    
Events Rain , Thunderstorm    
Averages and records for this station are not official NWS values.
T = Trace of Precipitation, MM = Missing Value Source: Averaged Metar Reports

Daily Weather History Graph

Daily Weather History Graph

Search for Another Location

Airport or City:

Trip Planner

Search our weather history database for the weather conditions in past years. The results will help you decide how hot, cold, wet, or windy it might be!

Date:

Astronomy

Apr. 22, 2013 Rise Set
Actual Time 5:40 AM CEST 7:39 PM CEST
Civil Twilight 5:08 AM CEST 8:11 PM CEST
Nautical Twilight 4:28 AM CEST 8:52 PM CEST
Astronomical Twilight 3:43 AM CEST 9:36 PM CEST
Moon 3:56 PM CEST (4/22) 3:39 AM CEST (4/22)
Length of Visible Light 15h 03m
Length of Day
13h 58m
Waxing Gibbous, 86% of the Moon is Illuminated
Apr 22
Waxing Gibbous
Apr 25
Full
May 2
Last Quarter
May 10
New
May 18
First Quarter

Hourly Weather History & Observations

Time (CEST) Temp. Windchill Dew Point Humidity Pressure Visibility Wind Dir Wind Speed Gust Speed Precip Events Conditions
12:15 AM 53.6 °F - 41.0 °F 62% 29.98 in - ENE 8.9 mph - N/A   Clear
12:45 AM 51.8 °F - 39.2 °F 62% 29.98 in - ENE 8.9 mph - N/A   Clear
1:15 AM 51.8 °F - 39.2 °F 62% 29.98 in - ENE 6.7 mph - N/A   Clear
1:45 AM 50.0 °F - 39.2 °F 66% 29.98 in - ENE 6.7 mph - N/A   Clear
2:15 AM 50.0 °F - 39.2 °F 66% 29.98 in - NNE 6.7 mph - N/A   Clear
2:45 AM 48.2 °F - 39.2 °F 71% 29.98 in - NNE 6.7 mph - N/A   Clear
3:15 AM 44.6 °F 40.8 °F 39.2 °F 81% 29.98 in - NNE 6.7 mph - N/A   Clear
3:45 AM - - - N/A% - - NNE 6.7 mph - N/A   Clear
4:15 AM 44.6 °F 42.3 °F 39.2 °F 81% 29.98 in - NNE 4.5 mph - N/A   Clear
4:45 AM 46.4 °F 43.0 °F 39.2 °F 76% 29.98 in - NNE 6.7 mph - N/A   Clear
5:15 AM 46.4 °F 43.0 °F 37.4 °F 71% 29.98 in - NNE 6.7 mph - N/A   Clear
5:45 AM 44.6 °F 40.8 °F 37.4 °F 76% 29.98 in - NNE 6.7 mph - N/A   Clear
6:15 AM 46.4 °F 43.0 °F 37.4 °F 71% 29.98 in - NNE 6.7 mph - N/A   Clear
6:45 AM - - - N/A% - - NNE 6.7 mph - N/A   Clear
7:15 AM 50.0 °F - 39.2 °F 66% 29.98 in - NE 8.9 mph - N/A   Clear
7:45 AM 51.8 °F - 37.4 °F 58% 29.98 in - NE 6.7 mph - N/A   Clear
8:15 AM 53.6 °F - 39.2 °F 58% 29.98 in - East 8.9 mph - N/A   Clear
8:45 AM 57.2 °F - 41.0 °F 55% 29.98 in - East 8.9 mph - N/A   Clear
9:15 AM 59.0 °F - 42.8 °F 55% 29.98 in - East 6.7 mph - N/A   Clear
9:45 AM - - - N/A% - - East 8.9 mph - N/A   Clear
10:15 AM 64.4 °F - 42.8 °F 45% 29.98 in - ENE 6.7 mph - N/A   Clear
10:45 AM 64.4 °F - 46.4 °F 52% 29.98 in - East 6.7 mph - N/A   Clear
11:15 AM 66.2 °F - 46.4 °F 49% 29.98 in - SSE 6.7 mph - N/A   Clear
11:45 AM 68.0 °F - 44.6 °F 43% 29.98 in - SSE 6.7 mph - N/A   Clear
12:15 PM 69.8 °F - 48.2 °F 46% 29.98 in - East 6.7 mph - N/A   Clear
12:45 PM - - - N/A% - 2.5 mi East 8.9 mph - N/A Rain , Thunderstorm Light Rain Showers
1:15 PM 69.8 °F - 44.6 °F 40% 29.95 in - East 6.7 mph - N/A   Clear
1:45 PM 71.6 °F - 41.0 °F 33% 29.95 in - East 8.9 mph - N/A   Clear
2:15 PM 71.6 °F - 44.6 °F 38% 29.95 in - East 11.2 mph - N/A   Clear
2:45 PM 73.4 °F - 44.6 °F 36% 29.95 in - East 11.2 mph - N/A   Clear
3:15 PM 73.4 °F - 42.8 °F 33% 29.95 in - ESE 11.2 mph - N/A   Clear
3:45 PM - - - N/A% - 1.9 mi ESE 8.9 mph - N/A Rain , Thunderstorm Rain Showers
4:15 PM 73.4 °F - 44.6 °F 36% 29.92 in - East 8.9 mph - N/A   Clear
4:45 PM 73.4 °F - 44.6 °F 36% 29.92 in - ESE 8.9 mph - N/A   Clear
5:15 PM 71.6 °F - 44.6 °F 38% 29.92 in - ESE 8.9 mph - N/A   Clear
5:45 PM 71.6 °F - 44.6 °F 38% 29.92 in - ESE 11.2 mph - N/A   Clear
6:15 PM 71.6 °F - 44.6 °F 38% 29.92 in - ESE 11.2 mph - N/A   Clear
6:45 PM - - - N/A% - 1.9 mi ESE 8.9 mph - N/A Rain , Thunderstorm Rain Showers
7:45 PM 66.2 °F - 46.4 °F 49% 29.95 in - East 4.5 mph - N/A   Clear
8:15 PM 64.4 °F - 46.4 °F 52% 29.95 in - East 8.9 mph - N/A   Clear
8:45 PM 62.6 °F - 50.0 °F 63% 29.98 in - East 6.7 mph - N/A   Clear
9:15 PM 62.6 °F - 50.0 °F 63% 29.98 in - East 6.7 mph - N/A   Clear
9:45 PM 62.6 °F - 50.0 °F 63% 29.98 in - ESE 6.7 mph - N/A   Clear
10:15 PM 59.0 °F - 50.0 °F 72% 29.98 in - SSW 4.5 mph - N/A   Clear
10:45 PM 57.2 °F - 48.2 °F 72% 30.01 in - South 2.2 mph - N/A   Clear
11:15 PM 55.4 °F - 48.2 °F 77% 30.01 in - South 2.2 mph - N/A   Clear
11:45 PM 53.6 °F - 48.2 °F 82% 30.04 in - South 4.5 mph - N/A   Clear